Simultaneous Nadir Overpasses (SNOs) Predictions

Prediction of SNOs over PacNW region [( 10.00, 139.50) to ( 22.70, 165.60)] between NOAA-19 and NPP Satellites:

Table of predicted SNOs over PacNW region for the next 30.0 days since TLE Epoch: 1/18/2013
Index Date (NOAA-19) Time (NOAA-19) NOAA-19 Lat,Lon Date (NPP) Time (NPP) NPP Lat,Lon Distance(km) Time Diff (sec)
1 01/28/2013 03:43:05 10.07, 146.50 01/28/2013 03:46:41 6.39, 143.16 549.55 216
2 01/28/2013 14:40:19 11.41, 165.57 01/28/2013 14:40:43 13.68, 162.77 395.13 24
3 01/28/2013 16:19:12 22.62, 142.77 01/28/2013 16:19:30 23.27, 139.71 321.40 18
4 01/29/2013 03:35:48 22.67, 146.18 01/29/2013 03:32:18 22.27, 144.15 212.97 210
5 02/10/2013 03:05:07 15.54, 155.15 02/10/2013 03:07:09 14.74, 151.73 377.68 122
6 02/10/2013 15:41:38 15.75, 151.02 02/10/2013 15:39:39 16.29, 148.47 278.56 119
